Location: ?ern� Novina
(50.6762°N, 14.8696°E)
Time: 12:09:21
(UTC+00:00)

Cosmos 2369 Rocket - Pass Details

Date: 03 March 2021
Orbit: 829 x 852 km, 71.0° (Epoch: 10 April)

Event Time Altitude Azimuth Distance (km) Brightness Sun altitude
Rises 19:44:36 0° 332° (NNW) 3,384 6.1 -28.4°
Reaches altitude 10° 19:47:40 10° 348° (NNW) 2,448 5.0 -28.8°
Enters shadow 19:51:05 20° 25° (NNE) 1,821 3.9 -29.3°
